Het weer op Woensdrecht:2014/10/21 19:25 EHWO 211925Z AUTO 29019G30KT 9999 FEW036 SCT042 BKN056 11/04 Q1007 BLU
Het weer op Amsterdam:2014/10/21 19:25 EHAM 211925Z 32018KT 270V350 9999 FEW035CB FEW049 09/06 Q1004 TEMPO 30028G38KT 6000

Menu promotie
· De club
· Motor(zweefvliegen) bij de ACV
· De vloot
· Kennismaken met de ACV


Buien Radar


Picasa foto link
ACV externe fotolink


Inloggen voor leden
WelkomAnonymous!


Lid nummer    
Wachtwoord 
Code: Code
Type Code in
[Wachtwoord vergeten?]


 
Sorry, deze module is niet actief (acv_addon_4)

[ Ga terug ]
copyright (c) ACV 2006 - 2014

All logos and trademarks in this site are property of their respective owner. The comments are property of their posters, all the rest 2005 by me.
PHP-Nuke Copyright © 2005 by Francisco Burzi. This is free software, and you may redistribute it under the GPL. PHP-Nuke comes with absolutely no warranty, for details, see the license.
Pagina Rendering: 0.06 Seconden